Location: Lane
(33.5226°N, 79.8788°W)
Time: 12:27:40
(UTC+00:00)

SR - Pass Details

Date: 04 October 2022
Orbit: 577 x 874 km, 66.7° (Epoch: 01 December)

Event Time Altitude Azimuth Distance (km) Brightness Sun altitude
Rises 02:22:44 0° 232° (SW) 3,404 ? -41.7°
Enters shadow 02:24:18 - 237° (WSW) 2,869 ? -42.0°
Reaches altitude 10° 02:25:27 10° 243° (WSW) 2,495 - -42.2°
Maximum altitude 02:30:34 31° 304° (NW) 1,483 - -43.1°
Drops below altitude 10° 02:35:45 10° 6° (N) 2,522 - -44.0°
Sets 02:38:32 0° 16° (NNE) 3,446 - -44.5°
